| time (UTC) | temp F | wind direction | speed MPH | gust MPH | rain 1hr in | rain 24hr in | rain mn in | humidity % | barometer mb |
| 20260502151515 | 44 | 22 | 7.0 | 12.0 | 0.00 | 0.00 | 0.00 | 69 | 1020.2 |
| 20260502123051 | 38 | 333 | 3.0 | 8.0 | 0.00 | 0.00 | 0.00 | 82 | 1019.8 |
| 20260502121552 | 37 | 5 | 3.0 | 6.0 | 0.00 | 0.00 | 0.00 | 82 | 1019.5 |
| 20260502114547 | 36 | 327 | 1.0 | 4.0 | 0.00 | 0.00 | 0.00 | 86 | 1019.4 |
| 20260502113044 | 35 | 325 | 0.0 | 3.0 | 0.00 | 0.00 | 0.00 | 87 | 1019.5 |
| 20260502111558 | 35 | 340 | 0.0 | 3.0 | 0.00 | 0.00 | 0.00 | 87 | 1019.5 |
| 20260502110043 | 34 | 136 | 0.0 | 3.0 | 0.00 | 0.00 | 0.00 | 88 | 1019.5 |
| 20260502104542 | 34 | 320 | 1.0 | 5.0 | 0.00 | 0.00 | 0.00 | 88 | 1019.4 |
| 20260502103059 | 34 | 267 | 0.0 | 5.0 | 0.00 | 0.00 | 0.00 | 88 | 1019.4 |
| 20260502101541 | 34 | 214 | 0.0 | 3.0 | 0.00 | 0.00 | 0.00 | 89 | 1019.3 |
| 20260502071524 | 37 | 232 | 0.0 | 5.0 | 0.00 | 0.00 | 0.00 | 90 | 1019.1 |
| 20260502070023 | 37 | 246 | 0.0 | 5.0 | 0.00 | 0.00 | 0.00 | 90 | 1019.2 |
| 20260502064517 | 37 | 217 | 1.0 | 3.0 | 0.00 | 0.00 | 0.00 | 90 | 1019.4 |
| 20260502063025 | 37 | 264 | 0.0 | 2.0 | 0.00 | 0.00 | 0.00 | 91 | 1019.3 |
| 20260502061511 | 37 | 355 | 0.0 | 0.0 | 0.00 | 0.00 | 0.00 | 91 | 1019.4 |
| 20260502060017 | 38 | 355 | 0.0 | 0.0 | 0.00 | 0.00 | 0.00 | 91 | 1019.5 |
| 20260502054520 | 39 | 355 | 0.0 | 0.0 | 0.00 | 0.00 | 0.00 | 90 | 1019.6 |
| 20260502053008 | 39 | 355 | 0.0 | 2.0 | 0.00 | 0.00 | 0.00 | 90 | 1019.7 |
| 20260502051506 | 38 | 355 | 0.0 | 0.0 | 0.00 | 0.00 | 0.00 | 90 | 1019.6 |
| 20260502050010 | 38 | 355 | 0.0 | 2.0 | 0.00 | 0.00 | 0.00 | 91 | 1019.7 |
| 20260502044505 | 37 | 355 | 0.0 | 0.0 | 0.00 | 0.00 | 0.00 | 91 | 1019.5 |
| 20260502043004 | 37 | 355 | 0.0 | 0.0 | 0.00 | 0.00 | 0.00 | 91 | 1019.6 |
| 20260502041501 | 38 | 355 | 0.0 | 0.0 | 0.00 | 0.00 | 0.00 | 91 | 1019.6 |
| 20260502040059 | 38 | 355 | 0.0 | 0.0 | 0.00 | 0.00 | 0.00 | 91 | 1019.6 |
| 20260502034558 | 39 | 355 | 0.0 | 0.0 | 0.00 | 0.00 | 0.00 | 90 | 1019.6 |
| 20260502033058 | 40 | 355 | 0.0 | 0.0 | 0.00 | 0.00 | 0.00 | 90 | 1019.7 |
| 20260502031558 | 41 | 355 | 0.0 | 0.0 | 0.00 | 0.00 | 0.00 | 90 | 1019.9 |
| 20260502030059 | 41 | 355 | 0.0 | 0.0 | 0.00 | 0.00 | 0.00 | 90 | 1019.8 |
| 20260502024555 | 41 | 355 | 0.0 | 0.0 | 0.00 | 0.00 | 0.00 | 90 | 1019.7 |
| 20260502023056 | 42 | 355 | 0.0 | 0.0 | 0.00 | 0.00 | 0.00 | 89 | 1019.6 |
| 20260502021551 | 42 | 355 | 0.0 | 0.0 | 0.00 | 0.00 | 0.00 | 89 | 1019.5 |
| 20260502020050 | 43 | 355 | 0.0 | 0.0 | 0.00 | 0.00 | 0.00 | 87 | 1019.4 |
| 20260502014550 | 43 | 355 | 0.0 | 0.0 | 0.00 | 0.00 | 0.00 | 85 | 1019.1 |
| 20260502013050 | 44 | 360 | 0.0 | 3.0 | 0.00 | 0.00 | 0.00 | 84 | 1018.9 |
| 20260502011545 | 44 | 294 | 0.0 | 2.0 | 0.00 | 0.00 | 0.00 | 84 | 1018.6 |
| 20260502010051 | 44 | 11 | 0.0 | 5.0 | 0.00 | 0.00 | 0.00 | 83 | 1018.4 |
| 20260502004602 | 44 | 5 | 2.0 | 5.0 | 0.00 | 0.00 | 0.00 | 83 | 1018.5 |
| 20260502003041 | 45 | 11 | 0.0 | 2.0 | 0.00 | 0.00 | 0.00 | 83 | 1018.4 |
| 20260502001540 | 45 | 12 | 0.0 | 5.0 | 0.00 | 0.00 | 0.00 | 81 | 1018.4 |
| 20260502000050 | 46 | 344 | 1.0 | 5.0 | 0.00 | 0.00 | 0.00 | 80 | 1018.0 |
| 20260501234536 | 46 | 360 | 1.0 | 7.0 | 0.00 | 0.00 | 0.00 | 78 | 1017.7 |
| 20260501233040 | 47 | 261 | 3.0 | 7.0 | 0.00 | 0.00 | 0.00 | 77 | 1017.4 |
| 20260501231539 | 48 | 5 | 2.0 | 6.0 | 0.00 | 0.00 | 0.00 | 75 | 1017.2 |
| 20260501230034 | 48 | 304 | 1.0 | 5.0 | 0.00 | 0.00 | 0.00 | 78 | 1017.2 |
| 20260501224538 | 48 | 360 | 1.0 | 7.0 | 0.00 | 0.00 | 0.00 | 77 | 1017.3 |
| 20260501223033 | 48 | 31 | 3.0 | 9.0 | 0.00 | 0.00 | 0.00 | 78 | 1017.2 |
| 20260501221533 | 47 | 243 | 3.0 | 11.0 | 0.00 | 0.00 | 0.00 | 82 | 1017.3 |
| 20260501220031 | 46 | 345 | 3.0 | 9.0 | 0.00 | 0.00 | 0.00 | 84 | 1017.6 |
| 20260501214531 | 45 | 351 | 1.0 | 7.0 | 0.00 | 0.00 | 0.00 | 86 | 1017.4 |
| 20260501213030 | 45 | 19 | 1.0 | 8.0 | 0.00 | 0.00 | 0.00 | 86 | 1017.0 |
| 20260501211530 | 45 | 286 | 3.0 | 10.0 | 0.00 | 0.00 | 0.00 | 85 | 1016.7 |
| 20260501210029 | 45 | 326 | 2.0 | 10.0 | 0.00 | 0.00 | 0.00 | 86 | 1016.4 |
| 20260501204528 | 45 | 350 | 2.0 | 8.0 | 0.00 | 0.00 | 0.00 | 85 | 1016.2 |
| 20260501203028 | 45 | 319 | 1.0 | 9.0 | 0.00 | 0.00 | 0.00 | 85 | 1016.2 |
| 20260501201530 | 46 | 5 | 5.0 | 11.0 | 0.00 | 0.00 | 0.00 | 85 | 1016.1 |
| 20260501200027 | 47 | 314 | 4.0 | 11.0 | 0.00 | 0.00 | 0.00 | 83 | 1015.9 |
| 20260501194527 | 48 | 238 | 4.0 | 14.0 | 0.00 | 0.00 | 0.00 | 82 | 1015.6 |
| 20260501193028 | 50 | 158 | 4.0 | 15.0 | 0.00 | 0.00 | 0.00 | 85 | 1015.4 |
| 20260501191527 | 50 | 5 | 5.0 | 14.0 | 0.00 | 0.00 | 0.00 | 83 | 1015.0 |
| 20260501190024 | 51 | 198 | 6.0 | 15.0 | 0.00 | 0.00 | 0.00 | 84 | 1014.7 |
| 20260501184522 | 50 | 216 | 3.0 | 9.0 | 0.00 | 0.00 | 0.00 | 89 | 1014.3 |
| 20260501183020 | 48 | 192 | 2.0 | 7.0 | 0.00 | 0.00 | 0.00 | 90 | 1014.3 |
| 20260501181516 | 46 | 192 | 4.0 | 7.0 | 0.00 | 0.00 | 0.00 | 90 | 1014.4 |
| 20260501180024 | 46 | 189 | 3.0 | 9.0 | 0.00 | 0.00 | 0.00 | 90 | 1014.3 |
| 20260501174521 | 46 | 197 | 5.0 | 10.0 | 0.00 | 0.00 | 0.00 | 90 | 1014.3 |
| 20260501173015 | 47 | 217 | 6.0 | 13.0 | 0.00 | 0.00 | 0.00 | 90 | 1014.3 |
| 20260501171512 | 46 | 207 | 2.0 | 7.0 | 0.00 | 0.00 | 0.00 | 90 | 1014.3 |
| 20260501170012 | 46 | 205 | 6.0 | 9.0 | 0.00 | 0.00 | 0.00 | 90 | 1014.2 |
| 20260501164523 | 45 | 168 | 2.0 | 7.0 | 0.00 | 0.00 | 0.00 | 90 | 1014.2 |
| 20260501163010 | 45 | 168 | 2.0 | 6.0 | 0.00 | 0.00 | 0.00 | 90 | 1014.5 |
| 20260501161510 | 45 | 190 | 1.0 | 5.0 | 0.00 | 0.00 | 0.00 | 90 | 1014.7 |
| 20260501160010 | 45 | 200 | 0.0 | 5.0 | 0.00 | 0.00 | 0.00 | 90 | 1014.7 |